Content
SEND FEEDBACK

Daily
Averages
Monthly
Summary
United States of America

MALDEN, MISSOURI


Home > North America > United States > Missouri
Elevation: 295 feet     Latitude: 36 36N     Longitude: 089 59W

WEATHER
 
SELECT A DAY
Number of Records: 207,775;   Date Range: 1/1/95 - 8/12/14
 
SHARE

PRINT THIS DATA

[ ← Previous Day ]
WEATHER ALMANAC - JUNE 17, 2014
[ Next Day → ]
[ °C ]   °F
Weather ElementAverageHighLow
Temperature82.7 °F90 °F (3:53 pm)75 °F (5:53 am)
Dewpoint68.3 °F70 °F (7:53 am)66 °F (4:53 pm)
Humidity62.8 %82 % (5:53 am)45 % (4:53 pm)
Barometer30.01 in30.07 in (11:20 am)29.96 in (2:53 am)
Wind Speed11.5 mph17.3 mph (2:53 pm)
Wind Gust24.2 mph (2:53 pm)
Weather ElementAverage
Visibility10 mi
Wind DirectionSSW (197.2 °)

Weather ElementTotal
Precipitation---
Cooling Degree Days17.5 (Base 65)
Growing Degree Days32.5 (Base 50)
Averaged from 25 records on June 17, 2014
WEATHER CONDITIONS BREAKOUT
WIND DIRECTION BREAKOUT
WEATHER BY HOUR - JUNE 17, 2014
[ °C ]   °F
Local TimeTemperatureDewpointHumidityBarometerVisibilityWind DirectionWind SpeedGust SpeedPrecipitationEventsConditions
1:53 AM78.1 °F68.0 °F71 %29.97 in10.0 miSouth (180°)8.1 mphClear
2:53 AM77.0 °F69.1 °F76 %29.96 in10.0 miSouth (190°)9.2 mphClear
3:53 AM75.9 °F69.1 °F79 %29.96 in10.0 miSSW (200°)9.2 mphClear
4:53 AM75.9 °F69.1 °F79 %29.98 in10.0 miSouth (190°)8.1 mphClear
5:53 AM75.0 °F69.1 °F82 %30.01 in10.0 miSouth (180°)6.9 mphClear
6:53 AM75.9 °F69.1 °F79 %30.03 in10.0 miSSW (200°)10.4 mphClear
7:53 AM78.1 °F70.0 °F76 %30.04 in10.0 miSW (220°)10.4 mphClear
8:53 AM81.0 °F70.0 °F69 %30.04 in10.0 miSW (220°)15.0 mphScattered Clouds
9:53 AM82.9 °F70.0 °F65 %30.04 in10.0 miSW (220°)13.8 mphPartly Cloudy
10:53 AM84.9 °F70.0 °F61 %30.04 in10.0 miSSW (200°)16.1 mphScattered Clouds
11:20 AM86.0 °F70.0 °F59 %30.07 in10.0 miSSW (210°)15.0 mphMostly Cloudy
11:28 AM84.9 °F69.1 °F59 %30.07 in10.0 miSW (220°)12.7 mphScattered Clouds
11:53 AM86.0 °F69.1 °F57 %30.05 in9.0 miSW (220°)11.5 mphScattered Clouds
12:53 PM88.0 °F69.1 °F53 %30.03 in10.0 miSSW (210°)16.1 mph21.9 mphPartly Cloudy
1:53 PM88.0 °F68.0 °F51 %30.01 in10.0 miSSW (200°)15.0 mph23.0 mphClear
2:53 PM89.1 °F66.9 °F48 %29.99 in10.0 miSSW (210°)17.3 mph24.2 mphPartly Cloudy
3:53 PM90.0 °F66.9 °F46 %29.98 in10.0 miSSW (210°)16.1 mph23.0 mphPartly Cloudy
4:53 PM90.0 °F66.0 °F45 %29.98 in10.0 miSouth (190°)16.1 mph23.0 mphPartly Cloudy
5:53 PM88.0 °F66.0 °F48 %29.97 in10.0 miSSW (200°)11.5 mph21.9 mphPartly Cloudy
6:53 PM86.0 °F66.0 °F51 %29.97 in10.0 miSouth (190°)11.5 mphClear
7:53 PM84.0 °F66.9 °F56 %29.97 in10.0 miSouth (180°)8.1 mphClear
8:53 PM82.0 °F66.9 °F60 %29.99 in10.0 miSouth (180°)5.8 mphClear
9:53 PM81.0 °F68.0 °F65 %30.00 in10.0 miSSE (160°)6.9 mphClear
10:53 PM80.1 °F68.0 °F67 %30.00 in10.0 miSSE (160°)6.9 mphClear
11:53 PM80.1 °F68.0 °F67 %29.99 in10.0 miSouth (190°)10.4 mphClear
Hourly data recorded from KPOF, located miles away from Malden, Missouri







STORIES FROM OUR PARTNERS